[[{"header":{"parameterUnit":"m.s-1","parameterCategory":1,"la1":30.2991,"la2":30.254,"lo1":-89.0895,"lo2":-89.0444,"dy":0.0017,"dx":0.0017,"nx":28,"ny":28,"refTime":"2025-03-27T09:00:00:Z","depth":0,"parameterNumber":2,"parameterNumberName":"U-component_of_WINDS"},"data":[0,0,0,0,0,0,0,0,0,0,0,0,0,0,0,0,0,0,0,0,0,0,0,0,0,0,0,0,0,0,0,0,0,0,0,0,0,0,0,0,0,0,0,0,0,0,0,0,0,0,0,0,0,0,0,0,0,0,-4.5105,-4.5106,0,-4.5244,-4.5246,-4.5247,-4.5251,-4.525,-4.5248,-4.5246,-4.5388,-4.5394,-4.5399,0,0,0,0,0,0,0,0,0,0,0,0,0,-4.4841,-4.4846,-4.5104,-4.5106,-4.5108,-4.5244,-4.5246,-4.5248,-4.5252,-4.5249,-4.5247,-4.5245,-4.5387,-4.5393,-4.54,0,0,0,0,0,0,0,0,0,0,0,0,0,-4.4965,-4.4847,-4.5104,-4.5126,-4.513,-4.5244,-4.5246,-4.5248,-4.5252,-4.5249,-4.5247,-4.5244,-4.5385,-4.5392,-4.54,-4.5501,0,0,-4.5425,-4.5429,0,0,0,0,0,0,0,0,-4.4958,-4.4975,-4.5121,-4.5125,-4.5129,-4.5228,-4.5205,-4.5333,-4.5253,-4.5205,-4.5246,-4.5243,-4.5337,-4.5349,-4.5381,-4.5508,-4.5514,-4.5426,-4.5431,-4.5434,-4.5436,0,0,0,0,0,0,0,-4.495,-4.4969,-4.516,-4.5123,-4.5128,-4.5129,-4.5144,-4.5229,-4.5284,-4.5209,-4.521,-4.5227,-4.5339,-4.5373,-4.5384,-4.5516,-4.5426,-4.5433,-4.5438,-4.5441,-4.5734,-4.5737,0,0,0,0,0,0,-4.4937,-4.4962,-4.5155,-4.5164,-4.5036,-4.5136,-4.5153,-4.5199,-4.5283,-4.5293,-4.5229,-4.5226,-4.536,-4.5375,-4.5389,-4.5512,-4.5434,-4.5442,-4.5446,-4.5731,-4.5734,-4.5738,0,0,0,0,0,0,-4.4931,-4.4954,-4.515,-4.5063,-4.5088,-4.5143,-4.5195,-4.5203,-4.5237,-4.5297,-4.5307,-4.5253,-4.5359,-4.5378,-4.5474,-4.5517,-4.5445,-4.5453,-4.5727,-4.5732,-4.5736,-4.5759,0,0,0,0,0,0,-4.4924,-4.4952,-4.4991,-4.5064,-4.5093,-4.5232,-4.5198,-4.5207,-4.5251,-4.5249,-4.5323,-4.5333,-4.5358,-4.5461,-4.5482,-4.5527,-4.5459,-4.5724,-4.5729,-4.5735,-4.5755,-4.5764,-4.5772,0,0,0,0,0,-4.4914,-4.4992,-4.4993,-4.5016,-4.5142,-4.5234,-4.5251,-4.5278,-4.5254,-4.5294,-4.5333,-4.5331,-4.551,-4.5471,-4.5494,-4.5542,-4.5721,-4.5728,-4.5734,-4.5751,-4.5762,-4.5771,0,0,0,0,0,0,-4.4921,-4.5001,-4.5003,-4.5107,-4.5164,-4.5235,-4.5285,-4.5289,-4.5353,-4.5349,-4.538,-4.5397,-4.5492,-4.5527,-4.5483,-4.5645,-4.5613,-4.5624,-4.5617,-4.5629,-4.5637,-4.5625,-4.5466,0,0,0,0,0,-4.4935,-4.5003,-4.507,-4.5155,-4.5183,-4.5229,-4.527,-4.5287,-4.5347,-4.537,-4.5417,-4.5475,-4.5544,-4.5589,-4.5656,-4.5761,-4.5777,-4.5806,-4.5814,-4.5821,-4.5829,-4.5887,-4.59,-4.5759,-4.5759,-4.5759,0,0,-4.4964,-4.5016,-4.5057,-4.5157,-4.5203,-4.5272,-4.5249,-4.5324,-4.5375,-4.5382,-4.5474,-4.5511,-4.5578,-4.5678,-4.5725,-4.5711,-4.5872,-4.5829,-4.5834,-4.5839,-4.5895,-4.5908,-4.592,-4.5764,-4.5763,-4.5762,0,0,-4.5051,-4.5098,-4.5174,-4.5221,-4.5291,-4.5321,-4.5339,-4.541,-4.5434,-4.5529,-4.5535,-4.5597,-4.5716,-4.5763,-4.5803,-4.591,-4.591,-4.5931,-4.5974,-4.603,-4.6041,-4.6051,-4.6088,-4.6101,-4.594,-4.594,-4.5941,0,-4.5078,-4.5182,-4.5212,-4.5287,-4.533,-4.534,-4.5417,-4.5461,-4.5549,-4.5579,-4.5562,-4.5712,-4.5758,-4.5869,-4.5895,-4.5928,-4.5949,-4.5921,-4.6037,-4.6048,-4.6057,-4.6093,-4.6107,-4.5942,-4.5942,-4.5942,-4.5942,0,-4.5211,-4.5284,-4.5337,-4.5422,-4.5472,-4.5547,-4.5588,-4.5635,-4.5648,-4.568,-4.5776,-4.5832,-4.591,-4.5939,-4.5952,-4.6053,-4.6041,-4.6031,-4.5999,-4.6072,-4.6106,-4.612,-4.5945,-4.5944,-4.5944,-4.5943,0,0,-4.5304,-4.5406,-4.5425,-4.5463,-4.5542,-4.5599,-4.5675,-4.5752,-4.5791,-4.5853,-4.5917,-4.6018,-4.6009,-4.6054,-4.6073,-4.6122,-4.6202,-4.6106,-4.6108,-4.612,-4.6315,-4.6321,-4.6336,-4.6204,-4.6207,-4.6209,-4.6309,0,-4.5399,-4.5533,-4.5563,-4.5679,-4.5746,-4.5758,-4.5824,-4.588,-4.5913,-4.5974,-4.6011,-4.6082,-4.6065,-4.6092,-4.6142,-4.6182,-4.6241,-4.6175,-4.6262,-4.6265,-4.6243,-4.6354,-4.636,-4.6451,-4.6322,-4.6325,-4.6326,0,-4.5526,-4.559,-4.5713,-4.5783,-4.5813,-4.5871,-4.5944,-4.6004,-4.6067,-4.6088,-4.6139,-4.6153,-4.6233,-4.6199,-4.6309,-4.6263,-4.6301,-4.6326,-4.6331,-4.6338,-4.6298,-4.6362,-4.6481,-4.6494,-4.6348,-4.6346,-4.6344,0,-4.5579,-4.5697,-4.5785,-4.5819,-4.5903,-4.5944,-4.5981,-4.6042,-4.6087,-4.6151,-4.6181,-4.6254,-4.6293,-4.6349,-4.6383,-4.6355,-4.6489,-4.6459,-4.6508,-4.6507,-4.6533,-4.653,-4.6658,-4.6561,-4.6561,-4.6561,-4.6561,0,-4.568,-4.5754,-4.581,-4.5864,-4.5948,-4.5982,-4.6064,-4.6101,-4.6156,-4.6217,-4.6233,-4.629,-4.6332,-4.6396,-4.6423,-4.6509,-4.6527,-4.6545,-4.6551,-4.6542,-4.654,-4.6566,-4.6559,-4.6565,-4.6564,-4.6563,-4.6562,0,-4.5752,-4.5793,-4.589,-4.5963,-4.5983,-4.6041,-4.6103,-4.6156,-4.619,-4.6268,-4.6288,-4.6342,-4.6417,-4.6457,-4.6552,-4.657,-4.6666,-4.6669,-4.6644,-4.6646,-4.6692,-4.6686,-4.6839,-4.686,-4.6751,-4.6752,-4.6753,0,-4.5812,-4.587,-4.5949,-4.5991,-4.6029,-4.6098,-4.6143,-4.618,-4.6227,-4.6304,-4.6348,-4.6424,-4.6487,-4.6607,-4.6654,-4.6727,-4.6731,-4.6779,-4.6741,-4.6731,-4.6729,-4.6724,-4.673,-4.6785,-4.6786,-4.6787,-4.6787,0,-4.5915,-4.5932,-4.5997,-4.607,-4.6124,-4.6183,-4.6242,-4.6276,-4.6322,-4.6374,-4.6451,-4.65,-4.6597,-4.6672,-4.6749,-4.6787,-4.6795,-4.6799,-4.6814,-4.6805,-4.6787,-4.6795,-4.666,-4.6795,-4.6794,-4.6794,-4.6793,-4.6793,-4.5982,-4.6033,-4.6096,-4.6169,-4.6217,-4.6271,-4.6324,-4.6365,-4.6431,-4.6512,-4.653,-4.6612,-4.6675,-4.6778,-4.6819,-4.6883,-4.6873,-4.6895,-4.69,-4.6905,-4.6906,-4.6779,-4.6898,-4.6898,-4.6898,-4.6897,-4.6897,0,-4.6083,-4.6125,-4.6191,-4.6272,-4.6329,-4.6333,-4.6398,-4.6445,-4.6516,-4.6575,-4.6637,-4.6726,-4.6799,-4.6853,-4.6928,-4.6969,-4.6975,-4.6988,-4.6984,-4.6992,-4.6911,-4.689,-4.6982,-4.6982,-4.6982,-4.6982,-4.6982,-4.6982,-4.6142,-4.6228,-4.6254,-4.6365,-4.6406,-4.6486,-4.6523,-4.6573,-4.662,-4.6718,-4.678,-4.6815,-4.6871,-4.6951,-4.7019,-4.7033,-4.7059,-4.7071,-4.7085,-4.7007,-4.6998,-4.6989,-4.6969,-4.7077,-4.7077,-4.716,-4.7161,-4.7162]},{"header":{"parameterUnit":"m.s-1","parameterCategory":1,"la1":30.2991,"la2":30.254,"lo1":-89.0895,"lo2":-89.0444,"dy":0.0017,"dx":0.0017,"nx":28,"ny":28,"refTime":"2025-03-27T09:00:00:Z","depth":0,"parameterNumber":3,"parameterNumberName":"V-component_of_WINDS"},"data":[0,0,0,0,0,0,0,0,0,0,0,0,0,0,0,0,0,0,0,0,0,0,0,0,0,0,0,0,0,0,0,0,0,0,0,0,0,0,0,0,0,0,0,0,0,0,0,0,0,0,0,0,0,0,0,0,0,0,4.9572,4.9573,0,4.9691,4.9693,4.9694,4.97,4.9698,4.9697,4.9695,4.9812,4.9817,4.9821,0,0,0,0,0,0,0,0,0,0,0,0,0,4.9346,4.935,4.9572,4.9574,4.9575,4.9691,4.9693,4.9694,4.97,4.9698,4.9696,4.9695,4.9811,4.9816,4.9821,0,0,0,0,0,0,0,0,0,0,0,0,0,4.9452,4.9351,4.9572,4.9592,4.9595,4.9691,4.9693,4.9695,4.97,4.9698,4.9696,4.9694,4.9809,4.9816,4.9822,4.9904,0,0,4.9842,4.9845,0,0,0,0,0,0,0,0,4.9446,4.9461,4.9587,4.9591,4.9594,4.9679,4.9656,4.9765,4.9701,4.966,4.9695,4.9693,4.9769,4.9779,4.9806,4.991,4.9915,4.9843,4.9847,4.985,4.9852,0,0,0,0,0,0,0,4.9439,4.9455,4.9619,4.9589,4.9593,4.9594,4.9607,4.9677,4.9725,4.9663,4.9664,4.9678,4.9771,4.9799,4.9808,4.9917,4.9843,4.9849,4.9853,4.9855,5.0097,5.0099,0,0,0,0,0,0,4.9428,4.9449,4.9615,4.9623,4.9514,4.96,4.9614,4.9653,4.9724,4.9733,4.968,4.9678,4.9789,4.9801,4.9813,4.9915,4.985,4.9856,4.986,5.0094,5.0097,5.01,0,0,0,0,0,0,4.9423,4.9443,4.961,4.9536,4.9558,4.9606,4.965,4.9657,4.9686,4.9737,4.9745,4.9701,4.9788,4.9803,4.9882,4.9919,4.9859,4.9865,5.0091,5.0095,5.0098,5.012,0,0,0,0,0,0,4.9417,4.9441,4.9474,4.9537,4.9562,4.9679,4.9652,4.9661,4.9698,4.9696,4.9758,4.9766,4.9787,4.9873,4.9889,4.9927,4.987,5.0088,5.0093,5.0097,5.0116,5.0124,5.0131,0,0,0,0,0,4.9409,4.9473,4.9475,4.9495,4.9603,4.9681,4.9695,4.972,4.9701,4.9733,4.9766,4.9764,4.9913,4.9881,4.9899,4.994,5.0086,5.0092,5.0097,5.0113,5.0122,5.013,0,0,0,0,0,0,4.941,4.9482,4.9485,4.9572,4.9621,4.9682,4.9724,4.9729,4.9782,4.9779,4.9805,4.9819,4.9898,4.9927,4.989,5.0024,4.9997,5.0006,5.0003,5.0012,5.0019,5.0011,4.9875,0,0,0,0,0,4.9421,4.948,4.9539,4.961,4.9635,4.9675,4.971,4.9725,4.9776,4.9796,4.9835,4.9883,4.9941,4.9978,5.0034,5.012,5.0134,5.0158,5.0165,5.0171,5.0178,5.0228,5.0239,5.0118,5.0118,5.0118,0,0,4.9443,4.949,4.9525,4.9612,4.9651,4.9711,4.9693,4.9756,4.98,4.9805,4.9883,4.9913,4.9969,5.0053,5.0092,5.0079,5.0215,5.0178,5.0182,5.0187,5.0235,5.0246,5.0257,5.0122,5.0121,5.012,0,0,4.9515,4.9556,4.9621,4.9662,4.9723,4.975,4.9766,4.9827,4.9848,4.9928,4.9933,4.9986,5.0084,5.0124,5.0157,5.0247,5.0247,5.0264,5.0301,5.035,5.0359,5.0368,5.0401,5.0412,5.0272,5.0272,5.0272,0,4.9535,4.9626,4.9653,4.9718,4.9756,4.9766,4.9832,4.9869,4.9945,4.9971,4.9956,5.0082,5.0119,5.0214,5.0236,5.0262,5.0281,5.0257,5.0356,5.0365,5.0373,5.0405,5.0417,5.0273,5.0273,5.0273,5.0273,0,4.9648,4.9711,4.9756,4.9832,4.9875,4.9939,4.9976,5.0016,5.0028,5.0056,5.0137,5.0184,5.025,5.0273,5.0284,5.037,5.036,5.0351,5.0324,5.0386,5.0417,5.0429,5.0276,5.0275,5.0275,5.0274,0,0,4.9722,4.9814,4.983,4.9866,4.9935,4.9984,5.0049,5.0116,5.0151,5.0203,5.0258,5.0343,5.0335,5.0373,5.0388,5.0431,5.05,5.0416,5.0418,5.0431,5.0599,5.0606,5.062,5.0501,5.0504,5.0506,5.0595,0,4.9802,4.9921,4.9948,5.0049,5.0109,5.012,5.0177,5.0225,5.0254,5.0308,5.0338,5.0399,5.0383,5.0407,5.0449,5.0483,5.0534,5.0477,5.0553,5.0555,5.0539,5.0636,5.0643,5.0725,5.0607,5.0609,5.061,0,4.9911,4.9969,5.0077,5.0141,5.0166,5.0217,5.0282,5.0333,5.0388,5.0406,5.045,5.0462,5.053,5.05,5.0594,5.0555,5.0588,5.0609,5.0613,5.0621,5.0587,5.0647,5.0752,5.0764,5.0629,5.0627,5.0626,0,4.9956,5.006,5.0139,5.0169,5.0244,5.028,5.0313,5.0367,5.0406,5.0462,5.0488,5.055,5.0584,5.0632,5.066,5.0636,5.0753,5.0725,5.077,5.0769,5.0794,5.0792,5.0906,5.0814,5.0814,5.0814,5.0813,0,5.0043,5.0109,5.0161,5.0209,5.0283,5.0314,5.0386,5.0419,5.0467,5.0521,5.0534,5.0584,5.0619,5.0674,5.0697,5.0772,5.0787,5.0803,5.0808,5.0803,5.0801,5.0824,5.082,5.0817,5.0816,5.0816,5.0815,0,5.0106,5.0143,5.023,5.0296,5.0314,5.0366,5.0422,5.0469,5.0498,5.0567,5.0585,5.0631,5.0698,5.0731,5.0812,5.0828,5.0913,5.0914,5.0895,5.0897,5.0941,5.0937,5.1074,5.1094,5.0988,5.0989,5.099,0,5.0159,5.021,5.0282,5.0321,5.0356,5.0417,5.0458,5.049,5.0532,5.06,5.0639,5.0707,5.0762,5.0867,5.0907,5.097,5.0974,5.1018,5.0983,5.0976,5.0975,5.0972,5.0978,5.1024,5.1025,5.1025,5.1026,0,5.025,5.0266,5.0326,5.0393,5.0442,5.0495,5.0548,5.0578,5.0619,5.0665,5.0734,5.0778,5.0863,5.0929,5.0996,5.1028,5.1034,5.1037,5.1051,5.1045,5.1033,5.1041,5.0913,5.1033,5.1033,5.1032,5.1032,5.1031,5.031,5.0357,5.0416,5.0482,5.0526,5.0575,5.0624,5.0661,5.0719,5.0792,5.0807,5.0881,5.0936,5.1026,5.1061,5.1119,5.1109,5.1129,5.1134,5.1139,5.1142,5.1023,5.1131,5.1131,5.113,5.113,5.113,0,5.0402,5.0441,5.0502,5.0577,5.0629,5.0632,5.0691,5.0734,5.0799,5.0851,5.0907,5.0987,5.1052,5.1099,5.1165,5.1202,5.1207,5.1219,5.1216,5.1224,5.1146,5.1128,5.1214,5.1214,5.1214,5.1214,5.1214,5.1214,5.0456,5.0537,5.0561,5.0663,5.0701,5.0775,5.0808,5.0854,5.0896,5.0986,5.1041,5.1072,5.1122,5.1192,5.1253,5.1264,5.1289,5.1301,5.1313,5.1238,5.1229,5.1221,5.1204,5.1306,5.1306,5.1387,5.1388,5.1388]}]]